Location: Unspecified
(50.7693°N, 0.0000°E)
Time: 03:27:03
(UTC+00:00)

A-11 Canister half - Pass Details

Date: 22 June 2019
Orbit: 1526 x 1683 km, 47.3° (Epoch: 17 July)

Event Time Altitude Azimuth Distance (km) Brightness Sun altitude
Rises 11:01:47 0° 287° (WNW) 4,682 11.3 60.3°
Reaches altitude 10° 11:05:15 10° 278° (W) 3,696 11.0 60.5°
Maximum altitude 11:12:57 31° 221° (SW) 2,452 10.8 61.1°
Drops below altitude 10° 11:20:45 10° 165° (SSE) 3,731 11.7 61.5°
Sets 11:24:17 0° 155° (SSE) 4,732 12.0 61.7°
